Location: Deerlick Astronomy Village
(33.5614°N, 82.7631°W)
Time: 07:59:48
(UTC-04:00)

Iridium 66 - Visible Passes

Search period start: 25 July 2016 00:00
Search period end: 04 August 2016 00:00
Orbit: 776 x 779 km, 86.4° (Epoch: 24 July)

Date Brightness Start Highest point End Pass type
(mag) Time Alt. Az. Time Alt. Az. Time Alt. Az.
25 Jul 6.7 05:02:18 10° SSE 05:07:22 55° E 05:12:27 10° NNE visible
26 Jul 7.9 04:29:39 10° SE 04:34:01 28° E 04:38:24 10° NNE visible
26 Jul 7.1 06:10:20 10° SW 06:14:37 26° W 06:18:56 10° NNW visible
27 Jul 8.6 03:58:03 10° ESE 04:00:47 14° E 04:03:31 10° NE visible
27 Jul 6.3 05:35:58 10° SSW 05:40:58 50° W 05:46:02 10° N visible
28 Jul 6.0 05:03:05 15° S 05:07:26 83° E 05:12:39 10° N visible
29 Jul 7.1 04:30:11 16° SSE 04:34:01 42° E 04:38:54 10° NNE visible
29 Jul 7.6 06:11:27 10° WSW 06:14:53 18° W 06:18:19 10° NW visible
30 Jul 8.2 03:57:15 12° SE 04:00:43 22° E 04:04:37 10° NE visible
30 Jul 6.8 05:37:45 17° SW 05:41:09 33° W 05:45:51 10° NNW visible
31 Jul 8.8 03:26:19 10° E 03:27:32 11° ENE 03:28:44 10° ENE visible
31 Jul 6.0 05:04:47 28° SSW 05:07:33 66° W 05:12:44 10° N visible
01 Aug 6.3 04:31:48 33° SSE 04:34:04 63° E 04:39:12 10° N visible
01 Aug 7.9 06:13:31 10° W 06:15:10 11° WNW 06:16:51 10° WNW visible
02 Aug 7.5 03:58:49 25° ESE 04:00:41 32° E 04:05:16 10° NNE visible
02 Aug 7.3 05:39:18 18° WSW 05:41:22 23° W 05:45:26 10° NNW visible
03 Aug 8.3 03:25:47 15° ESE 03:27:26 17° E 03:30:39 10° NE visible
03 Aug 6.4 05:06:17 35° SW 05:07:42 43° W 05:12:40 10° NNW visible
